Wind_Speed
40 41 42 43 44 44 44 44 45 45 46 46 47 47 48 49 50 52 53 53 53 53 53 54 54 54 54 55 55 56 57 57 56 55 54 53 52 50 48 47 45 43 42
43 42 42 43 43 43 44 45 46 46 47 48 49 50 51 53 54 55 56 57 58 59 59 59 58 59 59 60 60 60 59 59 59 58 58 58 57 55 54 53 50 47 46
45 45 45 45 45 46 46 47 48 49 50 51 52 54 55 57 58 59 60 60 61 61 61 60 60 61 61 61 61 61 61 62 63 61 61 62 60 58 59 57 56 55 53
43 43 44 45 47 48 49 50 52 53 54 55 56 57 58 59 60 61 61 62 63 64 64 64 64 64 64 64 64 64 65 65 65 64 64 63 64 65 62 60 61 59 56
45 47 48 50 51 52 54 55 57 58 58 59 61 62 63 64 65 66 67 67 68 68 68 67 67 67 67 67 67 67 68 68 68 67 67 67 66 65 64 63 63 64 62
48 49 51 53 54 56 58 60 61 63 64 66 67 69 70 71 72 73 74 74 74 74 73 73 73 72 72 71 71 71 71 72 72 70 69 67 66 65 64 64 64 65 63
52 54 56 58 60 62 64 65 66 67 68 70 71 72 74 75 75 76 77 77 77 77 78 77 77 78 78 77 77 77 77 74 73 71 69 67 66 66 65 65 64 63 63
58 60 61 62 64 65 67 68 70 72 74 76 77 78 79 80 80 81 81 81 81 80 81 81 81 81 81 80 78 77 74 73 72 70 70 67 66 64 64 66 66 65 63
62 64 65 67 69 71 73 74 76 77 78 79 80 80 80 79 80 80 79 78 77 78 78 78 78 79 79 78 77 74 73 71 72 71 69 65 62 62 64 62 66 65 66
67 69 71 72 73 75 75 76 77 78 79 79 78 78 76 74 73 74 74 74 72 73 73 73 74 74 75 75 75 74 72 71 71 70 67 66 66 65 63 64 66 65 61
72 73 74 75 76 77 77 77 76 76 75 75 75 75 75 74 73 72 73 72 69 68 68 67 67 68 69 70 70 70 68 67 66 63 64 64 62 60 62 65 66 63 62
75 76 76 77 77 76 76 75 75 74 74 73 73 73 72 70 69 68 67 67 66 65 65 66 65 66 67 67 66 66 64 63 62 62 61 60 58 52 54 55 56 59 61
75 76 76 76 76 75 74 74 73 72 71 70 69 66 64 63 61 61 61 61 62 63 61 63 63 63 64 65 63 62 62 63 59 59 58 57 54 54 58 59 53 53 52
75 75 74 73 72 72 71 70 70 68 67 66 64 62 60 58 56 57 57 57 58 60 59 60 59 58 60 60 59 59 56 54 54 56 58 56 52 50 50 50 49 48 50
72 71 70 69 69 69 68 67 67 65 64 62 61 60 58 56 56 55 55 54 55 56 56 55 54 51 51 53 53 54 52 52 52 53 53 48 48 49 48 47 47 46 45
68 67 67 66 67 67 67 66 66 65 64 63 63 61 60 59 57 56 55 53 52 53 54 50 47 47 47 48 50 51 51 48 49 49 48 47 49 46 44 43 41 41 37
66 66 66 67 67 68 69 69 68 68 68 67 66 65 64 62 60 58 55 52 50 50 52 47 46 45 48 47 47 44 46 46 49 46 45 46 46 45 43 43 39 32 31
68 69 70 71 71 72 72 72 73 73 72 71 71 69 67 64 61 57 54 51 49 48 50 49 48 47 46 48 49 49 50 48 46 44 42 40 41 42 43 37 32 30 33
72 74 76 77 78 78 79 79 79 79 78 76 73 71 68 65 61 57 52 50 49 48 50 51 49 46 46 47 49 50 50 47 41 38 37 38 43 46 39 35 35 33 35
80 82 83 84 84 84 84 84 82 81 80 79 76 74 70 68 63 58 53 52 50 49 51 49 48 47 47 48 48 49 48 43 41 39 37 42 50 45 39 38 37 37 35
88 88 87 86 84 83 83 81 81 80 78 77 76 72 67 63 60 57 56 54 50 50 50 48 49 48 48 49 48 49 48 48 43 43 41 45 49 43 41 40 39 38 37
84 83 81 78 76 73 70 67 65 62 60 57 55 53 51 52 55 56 56 54 50 51 51 50 50 49 47 49 49 47 46 47 46 46 46 44 47 47 46 44 43 42 40
72 69 65 62 59 58 56 53 51 49 48 48 46 46 47 48 49 50 50 52 51 52 52 52 52 49 48 48 47 46 45 46 46 46 45 46 49 47 48 48 47 46 44
60 57 55 53 52 50 48 46 45 43 43 42 42 41 40 42 44 46 49 51 52 53 54 53 53 51 50 49 48 47 47 47 46 47 48 46 48 49 49 51 50 49 48
52 50 50 48 45 43 42 41 40 39 38 38 39 39 38 39 42 46 49 52 53 54 53 55 55 55 53 53 52 49 47 47 49 49 51 49 49 50 51 53 53 53 53
44 43 43 42 41 39 37 37 37 37 36 36 36 37 38 39 42 44 48 54 55 55 54 55 56 56 55 54 55 55 54 54 52 51 50 50 52 53 54 55 55 55 56
Wind_Direction
262 264 265 265 265 266 266 267 267 268 268 268 269 269 270 270 270 271 272 273 273 275 276 277 278 278 277 277 277 278 279 279 280 280 280 281 281 280 279 278 277 278 280
264 265 265 266 267 266 266 267 267 268 269 269 270 270 271 271 272 273 273 274 274 275 276 277 276 275 275 275 275 276 276 277 277 276 276 276 276 279 279 278 276 275 277
260 262 263 264 266 267 268 269 270 270 271 271 271 271 272 272 272 272 272 272 273 273 273 274 273 274 274 273 273 273 273 273 275 276 276 277 277 278 277 276 277 277 276
263 265 266 268 269 271 271 272 272 272 272 272 273 273 273 273 272 272 272 272 272 272 272 272 273 273 273 273 273 273 273 274 274 274 274 274 273 275 275 274 273 275 274
266 267 269 270 270 271 272 272 272 272 272 271 272 271 272 272 272 272 272 273 273 273 272 272 272 272 272 271 272 272 272 272 271 272 272 272 272 273 273 272 271 271 272
268 269 270 271 272 272 273 273 273 273 273 273 273 273 273 273 273 273 272 272 272 272 272 272 272 271 271 271 271 270 270 271 272 272 272 272 272 271 271 270 270 270 270
269 270 271 272 272 273 273 274 275 276 277 278 277 277 277 276 275 274 274 273 273 272 272 271 270 269 269 268 267 268 269 270 270 271 271 270 269 269 269 268 268 270 270
272 272 272 273 274 275 276 277 278 279 279 279 279 279 278 277 275 274 273 272 271 271 270 269 268 267 267 266 266 266 266 267 267 267 267 267 267 267 264 266 267 268 269
274 274 275 276 277 279 280 280 280 281 280 280 279 278 277 276 275 274 272 271 271 269 268 267 266 265 265 265 265 265 265 264 263 265 265 264 264 266 268 267 269 271 268
278 279 280 281 281 281 282 282 282 281 281 280 279 278 277 276 275 274 273 272 271 270 269 267 265 264 263 263 262 263 263 264 264 264 264 262 261 263 264 264 268 272 271
280 281 281 282 282 282 282 282 281 281 280 279 278 278 277 277 276 276 276 274 272 270 269 267 265 263 261 261 261 262 263 263 262 263 263 264 264 263 261 264 266 269 269
280 281 282 282 282 282 281 280 279 278 277 277 277 277 277 277 277 276 275 274 272 270 269 267 265 262 260 259 260 260 261 261 262 264 264 263 261 258 260 261 261 266 268
281 281 281 281 281 280 279 278 277 277 277 278 278 278 278 276 275 275 274 274 273 272 270 267 265 261 257 256 257 258 258 260 261 260 260 259 259 257 257 264 264 267 267
280 280 280 279 278 277 277 277 278 278 278 278 277 276 276 276 275 276 277 276 276 274 271 267 264 259 255 254 254 256 257 257 256 252 255 259 258 258 256 259 265 262 267
279 279 278 278 278 278 278 278 277 277 277 277 277 277 276 275 276 277 279 278 276 274 270 266 264 257 251 250 251 253 253 254 256 256 256 253 251 253 261 261 260 259 258
277 277 277 276 276 276 277 277 277 277 278 278 278 278 276 275 276 278 280 279 276 271 268 264 257 252 252 250 250 249 252 254 255 254 252 252 252 250 252 254 251 251 256
277 277 276 276 276 276 276 277 276 277 277 277 277 278 277 276 277 277 278 277 272 264 262 259 251 250 251 253 246 248 253 252 247 249 246 245 245 242 246 248 247 253 261
277 277 277 277 277 277 277 277 277 276 276 276 276 276 275 274 275 274 274 270 265 257 255 252 250 249 249 247 248 248 247 242 239 238 237 237 239 242 243 243 248 256 262
279 279 279 279 279 279 279 278 277 276 276 275 274 273 273 272 271 269 265 261 258 250 249 250 249 247 245 243 241 240 235 232 234 237 242 248 248 241 239 243 246 252 257
279 279 280 280 280 279 278 278 278 277 276 275 274 272 270 269 267 263 255 251 250 246 244 248 246 244 242 240 238 236 235 235 236 238 243 253 248 239 239 242 247 250 251
280 281 280 280 279 279 278 277 277 276 275 274 273 271 269 265 259 252 247 247 243 244 241 241 242 240 239 240 240 239 240 239 240 240 240 249 240 242 241 243 246 248 248
281 281 281 281 280 279 278 276 275 275 274 272 270 267 261 254 248 244 243 244 238 240 240 238 238 239 237 239 241 240 241 242 241 240 242 247 243 242 241 242 245 245 244
281 281 281 280 279 278 277 276 274 272 269 267 263 260 256 252 248 244 241 238 235 236 238 239 237 237 237 237 239 239 240 242 242 241 239 243 242 239 242 239 241 242 241
281 281 280 279 278 276 275 273 270 267 264 261 257 254 251 247 244 240 236 231 234 235 236 235 236 236 236 237 238 239 241 242 243 244 244 244 245 241 243 243 238 238 237
280 279 277 276 275 274 272 269 266 263 260 258 255 251 246 242 240 238 235 230 231 234 236 235 234 235 237 237 238 238 241 244 243 243 244 243 245 246 245 242 239 238 238
278 276 274 274 273 271 270 268 265 261 258 256 253 250 246 242 240 239 236 232 230 232 236 235 234 234 235 236 238 239 240 241 242 242 243 245 246 245 243 241 239 238 239
Height
5700 5701 5702 5703 5703 5704 5705 5706 5707 5707 5708 5708 5708 5709 5709 5710 5710 5710 5710 5710 5710 5710 5710 5710 5710 5710 5710 5710 5710 5710 5709 5708 5709 5709 5710 5708 5708 5708 5708 5708 5708 5708 5708
5688 5689 5690 5690 5691 5692 5692 5693 5694 5694 5695 5696 5696 5697 5697 5697 5697 5697 5696 5696 5696 5696 5696 5696 5696 5695 5695 5695 5695 5695 5695 5694 5695 5695 5695 5695 5695 5696 5696 5696 5697 5697 5698
5676 5677 5677 5678 5679 5679 5680 5681 5681 5682 5682 5682 5683 5683 5683 5683 5682 5682 5681 5681 5681 5681 5680 5680 5680 5679 5680 5679 5679 5679 5679 5678 5679 5680 5680 5680 5682 5682 5683 5683 5684 5684 5685
5665 5665 5666 5666 5667 5668 5668 5668 5668 5668 5668 5668 5668 5668 5667 5667 5666 5665 5664 5664 5664 5663 5664 5663 5663 5663 5662 5662 5662 5662 5662 5662 5663 5665 5665 5665 5666 5666 5667 5668 5669 5669 5670
5652 5653 5653 5654 5654 5654 5654 5654 5653 5653 5653 5652 5651 5651 5650 5650 5649 5648 5646 5646 5646 5645 5645 5645 5645 5644 5644 5643 5644 5644 5644 5645 5645 5647 5648 5648 5649 5650 5651 5652 5653 5653 5654
5639 5639 5639 5639 5638 5638 5638 5637 5636 5636 5636 5635 5634 5633 5632 5632 5630 5629 5627 5627 5626 5626 5626 5626 5626 5625 5624 5624 5624 5625 5625 5625 5626 5628 5629 5631 5632 5632 5633 5634 5635 5636 5638
5625 5625 5624 5624 5623 5622 5621 5619 5618 5617 5616 5615 5614 5613 5612 5611 5609 5608 5606 5606 5605 5605 5604 5605 5604 5604 5603 5603 5603 5604 5605 5606 5607 5608 5610 5611 5612 5613 5614 5615 5616 5618 5619
5608 5607 5606 5605 5604 5603 5601 5600 5598 5597 5596 5594 5592 5591 5589 5587 5585 5584 5582 5581 5582 5581 5580 5580 5579 5580 5580 5580 5581 5582 5584 5586 5587 5589 5590 5591 5592 5593 5595 5597 5598 5600 5602
5589 5588 5587 5586 5584 5583 5581 5578 5576 5574 5572 5570 5569 5568 5567 5564 5560 5558 5555 5556 5557 5555 5555 5555 5556 5557 5558 5557 5559 5561 5562 5565 5566 5568 5571 5572 5574 5575 5577 5579 5581 5582 5584
5570 5568 5566 5564 5563 5560 5558 5555 5553 5551 5549 5546 5544 5542 5541 5540 5537 5532 5531 5532 5534 5531 5532 5533 5533 5534 5535 5535 5537 5539 5541 5544 5546 5549 5552 5554 5557 5558 5560 5562 5563 5565 5566
5547 5545 5543 5541 5539 5537 5534 5532 5529 5527 5525 5523 5521 5519 5517 5516 5515 5511 5507 5507 5510 5509 5509 5510 5511 5512 5513 5515 5516 5519 5522 5523 5526 5530 5533 5536 5540 5542 5544 5546 5548 5549 5550
5525 5522 5520 5517 5515 5513 5511 5508 5506 5504 5503 5500 5498 5497 5495 5494 5492 5489 5486 5484 5486 5487 5489 5488 5490 5491 5492 5495 5496 5500 5502 5505 5509 5512 5516 5520 5523 5526 5528 5529 5532 5534 5535
5502 5499 5496 5494 5491 5489 5487 5485 5483 5481 5479 5478 5476 5476 5474 5473 5472 5469 5467 5465 5464 5465 5469 5467 5468 5470 5472 5475 5478 5481 5484 5488 5492 5495 5500 5503 5506 5510 5512 5515 5517 5519 5520
5477 5475 5472 5470 5468 5465 5464 5463 5461 5460 5458 5457 5456 5456 5455 5454 5454 5451 5449 5448 5447 5445 5448 5447 5448 5451 5453 5457 5461 5463 5469 5472 5476 5479 5482 5486 5491 5495 5498 5501 5504 5506 5508
5454 5451 5449 5447 5445 5444 5442 5441 5440 5439 5438 5438 5437 5437 5436 5436 5434 5433 5432 5430 5429 5427 5428 5429 5431 5434 5437 5440 5445 5449 5453 5457 5461 5464 5468 5474 5477 5481 5485 5488 5490 5492 5494
5431 5430 5428 5426 5425 5423 5421 5421 5419 5419 5418 5418 5417 5416 5417 5416 5416 5416 5414 5414 5412 5410 5409 5414 5416 5420 5423 5426 5431 5435 5437 5443 5446 5450 5454 5459 5463 5468 5472 5475 5478 5480 5482
5410 5408 5407 5405 5403 5402 5400 5399 5400 5397 5397 5397 5396 5396 5396 5398 5397 5396 5396 5396 5395 5394 5393 5399 5403 5407 5411 5414 5417 5422 5425 5430 5432 5436 5441 5446 5451 5455 5459 5463 5466 5469 5471
5389 5387 5385 5382 5382 5379 5378 5377 5375 5374 5375 5375 5373 5374 5375 5375 5376 5377 5378 5377 5378 5379 5380 5386 5390 5394 5397 5400 5403 5408 5412 5415 5419 5424 5429 5433 5438 5442 5447 5451 5454 5457 5460
5366 5363 5360 5358 5357 5354 5352 5351 5350 5348 5348 5349 5351 5351 5350 5353 5355 5357 5358 5359 5362 5365 5368 5371 5377 5381 5384 5387 5390 5394 5397 5402 5406 5411 5416 5421 5426 5431 5434 5438 5442 5445 5448
5341 5338 5335 5332 5329 5327 5324 5322 5321 5320 5320 5320 5322 5324 5327 5329 5332 5335 5338 5341 5344 5349 5354 5356 5361 5367 5370 5373 5376 5380 5385 5389 5394 5399 5404 5409 5414 5418 5421 5426 5430 5433 5436
5315 5311 5306 5303 5300 5298 5295 5295 5292 5292 5292 5291 5291 5295 5299 5302 5306 5312 5318 5322 5328 5333 5338 5343 5346 5352 5355 5359 5363 5367 5372 5377 5382 5386 5391 5396 5401 5406 5410 5414 5418 5422 5425
5286 5281 5278 5275 5272 5269 5268 5267 5266 5265 5265 5266 5267 5270 5274 5278 5283 5290 5298 5305 5311 5317 5322 5328 5332 5336 5341 5346 5350 5355 5360 5365 5369 5373 5378 5383 5388 5393 5397 5402 5406 5410 5413
5259 5255 5253 5250 5248 5247 5246 5246 5245 5246 5246 5247 5249 5252 5256 5260 5266 5273 5280 5287 5294 5300 5306 5312 5318 5322 5327 5332 5337 5342 5346 5351 5356 5360 5364 5369 5374 5379 5384 5388 5393 5397 5401
5238 5235 5233 5231 5230 5229 5229 5229 5229 5229 5230 5232 5234 5237 5241 5245 5250 5257 5263 5271 5278 5284 5290 5296 5302 5308 5313 5318 5323 5328 5333 5338 5342 5347 5351 5356 5361 5365 5370 5375 5379 5384 5388
5219 5217 5215 5214 5214 5214 5214 5214 5214 5215 5216 5218 5220 5224 5227 5231 5236 5241 5248 5254 5261 5268 5274 5280 5286 5292 5298 5304 5309 5313 5318 5323 5328 5333 5337 5342 5347 5351 5356 5360 5365 5369 5374
5201 5200 5199 5199 5200 5200 5200 5200 5200 5202 5203 5205 5207 5210 5213 5217 5222 5226 5232 5238 5245 5251 5258 5264 5270 5277 5283 5288 5293 5298 5303 5309 5313 5318 5323 5328 5332 5336 5340 5345 5349 5354 5360